Regional Weather Roundup
Issued by NWS

Home | Current Version | Previous Version | Text Only | Print | Product List | Glossary Off
Versions: 1 2 3 4 5 6 7 8 9 10 11 12 13 14 15 16 17 18 19 20 21 22 23 24 25 26 27 28 29 30 31 32 33 34 35 36 37 38 39 40 41 42 43 44 45 46 47 48 49 50

459
ASUS43 KOAX 101202
RWRNE

WEATHER ROUNDUP FOR NEBRASKA
NATIONAL WEATHER SERVICE OMAHA NE
600 AM CST WED FEB 10 2016

NOTES: SATELLITE DATA IS BEING USED TO AUGMENT CLOUD COVER ABOVE
       12000 FEET.
       "FAIR" INDICATES FEW OR NO CLOUDS BELOW 12,000 FEET WITH NO
       SIGNIFICANT WEATHER AND/OR OBSTRUCTIONS TO VISIBILITY.

  * THESE STATIONS DO NOT REPORT WEATHER SUCH AS RAIN...SNOW OR FOG.

NEZ001>004-019>022-054>056-101300-
NEBRASKA PANHANDLE

CITY           SKY/WX    TMP DP  RH WIND       PRES   REMARKS
SCOTTSBLUFF    CLOUDY    31  25  78 NW9       30.04F WCI  23
6HR MIN TEMP:  27; 6HR MAX TEMP:  34;

ALLIANCE       CLOUDY    31  23  72 W9        30.00F WCI  23
6HR MIN TEMP:  28; 6HR MAX TEMP:  33;

CHADRON        CLOUDY    38  24  57 SW3       29.99F
6HR MIN TEMP:  30; 6HR MAX TEMP:  39;

KIMBALL        CLOUDY    37  24  58 W20       30.08S WCI  26
SIDNEY         CLOUDY    32  22  66 W13       30.07S WCI  22
6HR MIN TEMP:  32; 6HR MAX TEMP:  38;

$$

NEZ057>060-069>072-079>082-101300-
SOUTHWEST NEBRASKA

CITY           SKY/WX    TMP DP  RH WIND       PRES   REMARKS
NORTH PLATTE   CLEAR     25  21  85 W8        29.98F WCI  16
6HR MIN TEMP:  21; 6HR MAX TEMP:  28;

IMPERIAL       CLOUDY    36  23  59 W17       30.03F WCI  26
6HR MIN TEMP:  35; 6HR MAX TEMP:  38;

LEXINGTON      CLOUDY    21  19  91 W8        29.98S WCI  12
MCCOOK         CLOUDY    28  23  81 W12       30.03F WCI  18
6HR MIN TEMP:  28; 6HR MAX TEMP:  32;

$$

NEZ005>010-023>029-035>040-094-101300-
NORTH CENTRAL NEBRASKA

CITY           SKY/WX    TMP DP  RH WIND       PRES   REMARKS
VALENTINE      CLEAR     31  27  85 SW9       29.89F WCI  23
6HR MIN TEMP:  28; 6HR MAX TEMP:  32;

AINSWORTH      CLEAR     33  28  83 W7        29.89F WCI  27
BROKEN BOW     CLEAR     32  26  78 W9        29.92F WCI  24
6HR MIN TEMP:  27; 6HR MAX TEMP:  34;

ORD            CLOUDY    20  17  88 SW3       29.91F
6HR MIN TEMP:  18; 6HR MAX TEMP:  32;

$$

NEZ041-046>049-061>064-073>077-083>087-101300-
SOUTH CENTRAL NEBRASKA

CITY           SKY/WX    TMP DP  RH WIND       PRES   REMARKS
GRAND ISLAND   CLEAR     22  19  89 S9        29.96F WCI  12
6HR MIN TEMP:  22; 6HR MAX TEMP:  29;

AURORA         CLEAR     25  21  84 S7        29.97F WCI  18
HASTINGS       CLEAR     26  21  81 SW8       29.96F WCI  18
6HR MIN TEMP:  26; 6HR MAX TEMP:  29;

HEBRON         CLEAR     25  19  77 S5        30.03F WCI  19
YORK           CLOUDY    25  21  86 S10       29.98F WCI  15
$$

NEZ011>018-030>034-042>045-101300-
NORTHEAST NEBRASKA

CITY           SKY/WX    TMP DP  RH WIND       PRES   REMARKS
NORFOLK        CLOUDY    25  20  81 SE7       29.94F WCI  17
6HR MIN TEMP:  25; 6HR MAX TEMP:  27;

BLAIR          CLOUDY    25  18  75 S8        30.03F WCI  16
COLUMBUS *     CLOUDY    27  14  59 S6        29.99F WCI  20
FREMONT        CLOUDY    25  17  73 SE8       30.03F WCI  16
$$

NEZ050>053-065>068-078-088>093-101300-
SOUTHEAST NEBRASKA

CITY           SKY/WX    TMP DP  RH WIND       PRES   REMARKS
LINCOLN        CLOUDY    28  18  66 S9        30.05F WCI  19
6HR MIN TEMP:  23; 6HR MAX TEMP:  28;

OMAHA EPPLEY   FLURRIES  24  18  77 SE10      30.07F WCI  14
6HR MIN TEMP:  19; 6HR MAX TEMP:  24; 6HR PCP: TRACE;

BEATRICE       CLOUDY    28  15  58 S14       30.04F WCI  17
FALLS CITY     CLOUDY    25  18  74 S6        30.11F WCI  18
6HR MIN TEMP:  18; 6HR MAX TEMP:  25;

NEBRASKA CITY  CLOUDY    25  20  82 S7        30.08F WCI  17
$$

NEZ044-045-051>053-067-101300-
OMAHA AREA

CITY           SKY/WX    TMP DP  RH WIND       PRES   REMARKS
OMAHA EPPLEY   FLURRIES  24  18  77 SE10      30.07F WCI  14
6HR MIN TEMP:  19; 6HR MAX TEMP:  24; 6HR PCP: TRACE;

BLAIR          CLOUDY    25  18  75 S8        30.03F WCI  16
FREMONT        CLOUDY    25  17  73 SE8       30.03F WCI  16
OFFUTT AFB     CLOUDY    24  19  79 S7        30.06F WCI  16
WAHOO          CLOUDY    26  20  80 S8        30.03F WCI  17
$$




USA.gov is the U.S. government's official web portal to all federal, state and local government web resources and services.